Weather History for Laramie, WY

Change the Weather History Date:

Wednesday, December 28, 2011

  Actual Average Record
Temperature  
Mean Temperature 30 °F 21 °F  
Max Temperature 39 °F 32 °F 50 °F (1980)
Min Temperature 21 °F 10 °F -20 °F (2009)
Degree Days  
Heating Degree Days 35 44  
Month to date heating degree days 1486 1224  
Since 1 July heating degree days 3568 3536  
Cooling Degree Days 0 0  
Month to date cooling degree days 0 0  
Year to date cooling degree days 126 67  
Moisture  
Dew Point 22 °F    
Average Humidity 63    
Maximum Humidity 75    
Minimum Humidity 50    
Precipitation  
Precipitation 0.00 in 0.01 in 0.18 in (1978)
Month to date precipitation 0.06 0.29  
Year to date precipitation 10.42 10.89  
Sea Level Pressure  
Sea Level Pressure 30.05 in    
Wind  
Wind Speed 22 mph (WSW)    
Max Wind Speed 39 mph    
Max Gust Speed 55 mph    
Visibility 10 miles    
Events      
T = Trace of Precipitation, MM = Missing Value Source: NWS Daily Summary

Daily Weather History Graph

Daily Weather History Graph

Search for Another Location

Airport:

Trip Planner

Search our weather history database for the weather conditions in past years. The results will help you decide how hot, cold, wet, or windy it might be!

Date:

Astronomy

Dec. 28, 2011 Rise Set
Actual Time 7:27 AM MST 4:40 PM MST
Civil Twilight 6:56 AM MST 5:12 PM MST
Nautical Twilight 6:21 AM MST 5:46 PM MST
Astronomical Twilight 5:48 AM MST 6:20 PM MST
Moon 9:52 AM MST (12/28) 9:22 PM MST (12/28)
Length of Visible Light 10h 15m
Length of Day
9h 12m
Waxing Crescent, 18% of the Moon is Illuminated
Dec 28
Waxing Crescent
Dec 31
First Quarter
Jan 9
Full
Jan 16
Last Quarter
Jan 23
New

Hourly Weather History & Observations

Time (MST) Temp. Windchill Dew Point Humidity Pressure Visibility Wind Dir Wind Speed Gust Speed Precip Events Conditions
12:53 AM 23.0 °F 9.6 °F 12.2 °F 63% 30.09 in 10.0 mi SSW 16.1 mph - N/A   Clear
1:53 AM 25.0 °F 10.9 °F 14.0 °F 63% 30.09 in 10.0 mi SW 19.6 mph - N/A   Clear
2:53 AM 21.0 °F 5.0 °F 12.9 °F 71% 30.12 in 10.0 mi West 21.9 mph - N/A   Clear
3:53 AM 24.1 °F 8.7 °F 14.0 °F 65% 30.08 in 10.0 mi WSW 23.0 mph 28.8 mph N/A   Clear
4:53 AM 24.1 °F 6.4 °F 14.0 °F 65% 30.07 in 10.0 mi WSW 32.2 mph 38.0 mph N/A   Clear
5:53 AM 25.0 °F 8.4 °F 12.9 °F 60% 30.09 in 10.0 mi SW 28.8 mph 34.5 mph N/A   Clear
6:53 AM 28.0 °F 14.6 °F 12.9 °F 53% 30.09 in 10.0 mi SW 20.7 mph - N/A   Partly Cloudy
7:53 AM 30.9 °F 15.9 °F 17.1 °F 57% 30.09 in 10.0 mi WSW 31.1 mph 40.3 mph N/A   Mostly Cloudy
8:53 AM 30.0 °F 18.7 °F 19.9 °F 66% 30.12 in 10.0 mi SW 16.1 mph 26.5 mph N/A   Mostly Cloudy
9:53 AM 33.1 °F 20.3 °F 21.9 °F 64% 30.07 in 10.0 mi WSW 24.2 mph 39.1 mph N/A   Clear
10:53 AM 36.0 °F 25.6 °F 23.0 °F 59% 30.06 in 10.0 mi South 18.4 mph - N/A   Partly Cloudy
11:21 AM 37.4 °F 25.4 °F 23.0 °F 56% 30.03 in 10.0 mi WSW 27.6 mph 39.1 mph N/A   Clear
11:53 AM 37.9 °F 25.3 °F 24.1 °F 57% 30.02 in 10.0 mi WSW 32.2 mph 43.7 mph N/A   Clear
12:53 PM 37.0 °F 27.4 °F 25.0 °F 62% 30.04 in 10.0 mi SW 17.3 mph - N/A   Clear
1:53 PM 36.0 °F 26.0 °F 25.0 °F 64% 30.04 in 10.0 mi WSW 17.3 mph - N/A   Clear
2:53 PM 36.0 °F 24.7 °F 25.0 °F 64% 30.08 in 10.0 mi West 21.9 mph - N/A   Clear
3:53 PM 35.6 °F 26.6 °F 24.8 °F 65% 30.03 in 10.0 mi South 13.8 mph - N/A   Clear
4:20 PM 37.4 °F 25.6 °F 24.8 °F 60% 30.03 in 10.0 mi West 26.5 mph 34.5 mph N/A   Clear
4:53 PM 37.0 °F 26.2 °F 25.0 °F 62% 30.05 in 10.0 mi West 21.9 mph 29.9 mph N/A   Clear
5:53 PM 37.9 °F 27.9 °F 26.1 °F 62% 30.04 in 10.0 mi West 19.6 mph 34.5 mph N/A   Clear
6:53 PM 37.0 °F 24.9 °F 27.0 °F 67% 30.03 in 10.0 mi WSW 27.6 mph 41.4 mph N/A   Clear
7:53 PM 37.9 °F 25.9 °F 28.0 °F 68% 30.00 in 10.0 mi WSW 28.8 mph 38.0 mph N/A   Partly Cloudy
8:53 PM 36.0 °F 25.3 °F 28.0 °F 73% 30.02 in 10.0 mi SW 19.6 mph - N/A   Clear
9:53 PM 36.0 °F 25.3 °F 28.0 °F 73% 29.97 in 10.0 mi WSW 19.6 mph - N/A   Clear
10:53 PM 36.0 °F 27.5 °F 27.0 °F 70% 29.97 in 10.0 mi SSW 12.7 mph - N/A   Mostly Cloudy
11:53 PM 37.9 °F 26.6 °F 28.9 °F 70% 29.92 in 10.0 mi WSW 25.3 mph 40.3 mph N/A   Partly Cloudy